Regional Weather Roundup
Issued by NWS

Home | Current Version | Previous Version | Graphics & Text | Print | Product List | Glossary Off
Versions: 1 2 3 4 5 6 7 8 9 10 11 12 13 14 15 16 17 18 19 20 21 22 23 24 25 26 27 28 29 30 31 32 33 34 35 36 37 38 39 40 41 42 43 44 45 46 47 48 49 50

000
ASUS45 KABQ 281901
RWRNM
WEATHER ROUNDUP FOR NEW MEXICO
NATIONAL WEATHER SERVICE ALBUQUERQUE NM
100 PM MDT SAT MAR 28 2015

NOTE: "FAIR" MEANS FEW OR NO CLOUDS BELOW 12,000 FEET AGL WITH NO
       SIGNIFICANT WEATHER OR OBSTRUCTIONS TO VISION.

      THIS PRODUCT IS RELEASED AS TWO VERSIONS.  ONE VERSION NEAR
      THE TOP OF THE HOUR CONTAINING PRELIMINARY DATA FROM ALBUQUERQUE
      AND OTHER STATIONS.  A FINAL VERSION WITH ADDITIONAL DATA IS
      ISSUED ABOUT 10 MINUTES AFTER THE HOUR.

NMZ501-503-504-510>518-282000-
NORTHWEST PLATEAU/NORTHCENTRAL MOUNTAINS

CITY           SKY/WX    TMP DP  RH WIND       PRES   REMARKS
FARMINGTON     SUNNY     71  19  14 W7        30.20F
SANTA FE       SUNNY     69  21  16 W10       30.23F
TAOS           SUNNY     63  21  20 W6        30.27F
ANGEL FIRE     FAIR      60  20  21 SW17      30.30F

$$
NMZ402-403-502-505>509-282000-
WESTCENTRAL MOUNTAINS/SOUTHWEST MOUNTAINS

CITY           SKY/WX    TMP DP  RH WIND       PRES   REMARKS
GALLUP         SUNNY     73  12   9 SW10G18   30.27F
GRANTS         SUNNY     71  16  12 N8        30.27F
SILVER CITY    SUNNY     77   5   6 NW12G21   30.26F

$$
NMZ407-409-411-412-282000-
SOUTHERN DESERTS

CITY           SKY/WX    TMP DP  RH WIND       PRES   REMARKS
DEMING         SUNNY     82  18   9 S8        30.19F
ALAMOGORDO     MOSUNNY   77  18  10 N5        30.17F
T OR C         SUNNY     79  15   9 NW8       30.17F

$$
NMZ519>523-282000-
CENTRAL VALLEYS/CENTRAL HIGHLANDS

CITY           SKY/WX    TMP DP  RH WIND       PRES   REMARKS
ALBUQUERQUE    SUNNY     72  21  14 N3        30.22F
DOUBLE EAGLE   SUNNY     72  21  15 S8        30.24F
MORIARTY ARPT  FAIR      73  14  10 NW15G21   30.24F
CLINES CORNERS SUNNY     69  12  11 NW16      30.25F
BELEN          FAIR      73  19  13 E5        30.22F
SOCORRO        FAIR      77  22  12 N5        30.19F

$$
NMZ524>526-539-540-282000-
SOUTHCENTRAL MOUNTAINS

CITY           SKY/WX    TMP DP  RH WIND       PRES   REMARKS
RUIDOSO        NOT AVBL

$$
NMZ527>531-282000-
NORTHEAST HIGHLANDS/NORTHEAST PLAINS

CITY           SKY/WX    TMP DP  RH WIND       PRES   REMARKS
LAS VEGAS      SUNNY     68  17  14 S10       30.22F
RATON          SUNNY     71  17  12 S8        30.15F
CLAYTON        SUNNY     76  21  12 VRB3      30.09F

$$
NMZ532>537-282000-
EASTCENTRAL PLAINS

CITY           SKY/WX    TMP DP  RH WIND       PRES   REMARKS
TUCUMCARI      SUNNY     80  19  10 VRB5      30.07F
CANNON AFB     NOT AVBL
CLOVIS AIRPORT SUNNY     81  27  13 NW6G17    30.08F

$$
NMZ028-029-538-282000-
SOUTHEAST PLAINS

CITY           SKY/WX    TMP DP  RH WIND       PRES   REMARKS
ROSWELL        SUNNY     85  25  11 N9G18     30.07F
ARTESIA        SUNNY     81  32  17 N9        30.09F
CARLSBAD       SUNNY     87  27  11 N13       30.05F
HOBBS          SUNNY     84  27  12 W16       30.07F


$$



USA.gov is the U.S. government's official web portal to all federal, state and local government web resources and services.